�N����,����,�~����,�C��,���x,�C��,����,���ϕ���,�ő�u�ԕ���,�ő厞����,���˗�,�I�_���x,�n�����x,�ő啗���N��,DTYPE
"19/10/22","00:10",0.0,17.4,92.4,1007.8,322.4,1.2,2.7,355.5,0.00,16.2,19.0,"00:09:44",1
"19/10/22","00:20",0.2,17.4,92.4,1007.8,334.4,1.0,1.8,349.7,0.00,16.2,19.1,"00:10:08",1
"19/10/22","00:30",0.2,17.5,92.2,1008.1,336.0,1.1,3.4,8.8,0.00,16.3,18.7,"00:21:36",1
"19/10/22","00:40",0.0,17.4,92.2,1007.8,321.8,0.8,2.0,323.5,0.00,16.2,19.0,"00:30:16",1
"19/10/22","00:50",0.4,17.3,92.3,1007.8,319.1,1.0,1.8,342.7,0.00,16.1,18.8,"00:46:00",1
"19/10/22","01:00",0.2,17.4,92.2,1008.3,303.2,0.7,2.0,236.0,0.00,16.2,18.8,"00:50:02",1
"19/10/22","01:10",0.4,17.3,92.4,1007.6,275.8,1.0,2.1,222.3,0.00,16.1,18.8,"01:01:20",1
"19/10/22","01:20",0.2,17.2,92.7,1008.3,304.2,1.2,1.9,336.5,0.00,16.0,18.8,"01:14:00",1
"19/10/22","01:30",0.0,17.2,92.9,1008.1,266.9,0.8,1.4,242.8,0.00,16.1,18.9,"01:24:40",1
"19/10/22","01:40",0.0,17.1,93.2,1008.3,292.9,1.0,1.7,309.5,0.00,16.0,18.9,"01:30:48",1
"19/10/22","01:50",0.2,17.0,93.4,1008.1,303.6,0.8,1.7,242.7,0.00,16.0,18.9,"01:40:48",1
"19/10/22","02:00",0.2,17.0,93.6,1008.3,286.3,0.6,1.1,272.1,0.00,16.0,19.0,"01:58:00",1
"19/10/22","02:10",0.4,17.0,93.8,1008.1,335.1,0.8,1.6,346.1,0.00,16.0,18.9,"02:03:20",1
"19/10/22","02:20",0.6,16.9,94.0,1008.1,330.0,1.0,1.6,315.8,0.00,16.0,18.9,"02:14:40",1
"19/10/22","02:30",1.0,16.8,94.3,1008.3,298.6,0.6,1.3,331.0,0.00,15.9,18.9,"02:28:40",1
"19/10/22","02:40",1.4,16.8,94.4,1008.3,323.0,1.0,1.8,349.7,0.00,15.9,18.7,"02:39:52",1
"19/10/22","02:50",0.4,16.8,94.6,1007.8,324.0,1.6,2.5,333.5,0.00,16.0,18.7,"02:44:30",1
"19/10/22","03:00",0.2,16.7,94.8,1008.1,310.1,1.0,2.6,326.6,0.00,15.9,18.8,"02:52:00",1
"19/10/22","03:10",0.2,16.6,95.0,1007.6,279.9,0.7,1.2,301.5,0.00,15.8,18.9,"03:01:46",1
"19/10/22","03:20",0.2,16.6,95.2,1008.1,276.8,0.8,1.4,305.9,0.00,15.9,18.6,"03:10:42",1
"19/10/22","03:30",0.0,16.5,95.2,1007.4,304.8,1.0,2.4,324.5,0.00,15.8,18.7,"03:29:56",1
"19/10/22","03:40",0.0,16.5,95.3,1007.6,327.0,1.5,2.2,327.7,0.00,15.8,18.8,"03:30:10",1
"19/10/22","03:50",0.2,16.4,95.4,1007.1,322.3,1.0,1.6,329.5,0.00,15.7,18.6,"03:40:08",1
"19/10/22","04:00",0.0,16.4,95.6,1007.4,309.3,1.1,2.0,312.4,0.00,15.7,18.7,"03:55:02",1
"19/10/22","04:10",0.2,16.3,95.7,1007.1,310.4,0.7,1.2,324.7,0.00,15.7,18.8,"04:01:36",1
"19/10/22","04:20",0.0,16.3,95.9,1006.7,295.8,0.7,1.6,244.8,0.00,15.7,18.7,"04:15:38",1
"19/10/22","04:30",0.0,16.4,95.8,1007.1,68.9,0.6,1.4,64.6,0.00,15.8,18.7,"04:22:08",1
"19/10/22","04:40",0.0,16.3,96.0,1007.1,275.6,0.7,1.0,282.5,0.00,15.7,18.7,"04:32:32",1
"19/10/22","04:50",0.0,16.2,96.0,1007.1,298.9,0.8,1.2,313.1,0.00,15.6,18.7,"04:45:20",1
"19/10/22","05:00",0.2,16.2,96.1,1006.9,313.6,0.7,1.1,309.9,0.00,15.6,18.5,"04:57:12",1
"19/10/22","05:10",0.0,16.2,96.2,1006.9,277.0,0.8,1.4,329.7,0.00,15.6,18.7,"05:09:14",1
"19/10/22","05:20",0.0,16.1,96.2,1007.1,358.0,0.7,1.4,325.2,0.00,15.5,18.6,"05:10:16",1
"19/10/22","05:30",0.0,16.0,96.5,1007.1,284.4,0.8,1.2,265.6,0.00,15.5,18.6,"05:28:48",1
"19/10/22","05:40",0.0,16.0,96.5,1007.4,297.0,1.1,1.8,306.8,0.00,15.5,18.7,"05:37:04",1
"19/10/22","05:50",0.0,16.0,96.5,1007.1,308.4,1.1,2.1,345.3,0.00,15.5,18.6,"05:42:16",1
"19/10/22","06:00",0.0,15.9,96.5,1007.1,283.0,0.8,1.6,332.5,0.00,15.4,18.8,"05:59:28",1
"19/10/22","06:10",0.0,15.9,96.7,1006.9,284.5,0.8,1.4,309.1,0.00,15.4,18.7,"06:00:56",1
"19/10/22","06:20",0.0,15.9,96.9,1006.9,315.8,0.7,1.7,327.3,0.00,15.4,18.7,"06:15:20",1
"19/10/22","06:30",0.0,16.0,96.7,1006.9,275.0,0.5,1.1,244.2,0.00,15.5,18.6,"06:27:04",1
"19/10/22","06:40",0.0,15.9,96.9,1007.1,235.3,0.2,0.6,250.4,0.00,15.4,18.6,"06:35:36",1
"19/10/22","06:50",0.0,15.9,96.9,1007.1,286.8,0.7,1.3,320.4,0.00,15.4,18.6,"06:46:42",1
"19/10/22","07:00",0.0,15.9,97.0,1006.9,306.2,1.0,1.6,318.7,0.00,15.5,18.6,"06:55:36",1
"19/10/22","07:10",0.0,16.1,97.1,1007.4,324.9,0.3,0.8,285.8,0.00,15.7,18.5,"07:00:48",1
"19/10/22","07:20",0.0,16.2,97.1,1006.9,305.2,0.5,1.1,343.0,0.00,15.8,18.5,"07:18:24",1
"19/10/22","07:30",0.0,16.3,97.0,1007.4,316.3,0.6,1.0,336.6,0.01,15.9,18.6,"07:20:16",1
"19/10/22","07:40",0.0,16.4,97.1,1007.4,281.8,0.3,0.5,307.3,0.01,16.0,18.6,"07:30:16",1
"19/10/22","07:50",0.0,16.6,97.0,1007.4,301.9,0.8,1.6,325.3,0.02,16.2,18.6,"07:48:08",1
"19/10/22","08:00",0.0,16.6,97.0,1007.4,328.4,1.0,1.9,335.2,0.02,16.2,18.6,"07:53:20",1
"19/10/22","08:10",0.0,16.8,96.8,1007.1,350.2,0.3,0.8,5.1,0.04,16.3,18.6,"08:01:44",1
"19/10/22","08:20",0.0,16.8,96.8,1007.8,271.0,0.7,1.2,316.5,0.05,16.3,18.6,"08:12:56",1
"19/10/22","08:30",0.0,16.8,96.7,1008.1,252.8,1.0,1.6,237.0,0.05,16.3,18.7,"08:23:20",1
"19/10/22","08:40",0.0,17.0,96.5,1008.1,253.5,0.6,1.1,248.0,0.08,16.5,18.7,"08:30:32",1
"19/10/22","08:50",0.0,17.1,96.5,1007.8,238.7,0.6,1.6,228.3,0.11,16.6,18.8,"08:48:56",1
"19/10/22","09:00",0.0,17.3,96.4,1007.8,258.6,0.7,1.4,235.4,0.12,16.8,18.9,"08:52:32",1
"19/10/22","09:10",0.0,17.4,95.8,1007.6,354.5,0.3,1.0,0.5,0.15,16.8,19.2,"09:05:04",1
"19/10/22","09:20",0.0,18.1,95.0,1007.6,14.7,0.2,0.8,129.6,0.26,17.3,19.1,"09:18:24",1
"19/10/22","09:30",0.0,19.1,94.2,1007.6,124.2,0.6,1.7,107.9,0.29,18.2,19.1,"09:25:20",1
"19/10/22","09:40",0.0,19.0,94.6,1007.6,126.6,0.7,1.4,100.4,0.31,18.2,19.4,"09:36:24",1
"19/10/22","09:50",0.0,19.5,91.5,1007.4,209.4,0.6,1.9,229.0,0.29,18.1,19.5,"09:44:24",1
"19/10/22","10:00",0.0,19.9,89.7,1007.4,205.2,1.0,2.2,222.4,0.34,18.2,19.7,"09:58:32",1
"19/10/22","10:10",0.0,20.4,87.8,1007.4,158.0,1.0,2.2,95.6,0.35,18.3,19.8,"10:07:20",1
"19/10/22","10:20",0.0,20.4,86.4,1007.4,185.4,1.2,3.1,207.5,0.21,18.1,19.9,"10:18:24",1
"19/10/22","10:30",0.0,20.9,84.4,1007.6,172.4,0.5,1.7,209.4,0.19,18.2,20.2,"10:20:02",1
"19/10/22","10:40",0.0,21.4,80.8,1007.8,220.9,1.0,2.7,129.9,0.31,18.0,20.2,"10:39:20",1
"19/10/22","10:50",0.0,22.3,75.7,1007.8,328.8,0.8,2.7,14.5,0.29,17.8,20.3,"10:40:40",1
"19/10/22","11:00",0.0,22.6,77.9,1007.4,33.4,1.5,4.3,277.2,0.39,18.6,20.6,"10:52:32",1
"19/10/22","11:10",0.0,22.9,71.7,1007.1,8.6,2.0,5.1,331.6,0.35,17.6,20.5,"11:02:48",1
"19/10/22","11:20",0.0,22.2,71.5,1006.7,353.4,2.1,4.3,337.3,0.19,16.8,20.5,"11:18:08",1
"19/10/22","11:30",0.0,22.1,73.6,1006.4,340.7,1.6,3.9,337.0,0.19,17.2,20.8,"11:22:32",1
"19/10/22","11:40",0.0,22.9,71.2,1006.0,275.2,0.8,2.4,328.4,0.33,17.5,20.8,"11:31:44",1
"19/10/22","11:50",0.0,23.4,67.2,1005.7,347.7,1.0,2.5,348.6,0.44,17.0,21.1,"11:41:20",1
"19/10/22","12:00",0.0,24.1,66.4,1005.7,351.9,1.1,3.1,308.3,0.50,17.5,21.2,"11:55:44",1
"19/10/22","12:10",0.0,23.7,68.1,1005.2,33.5,1.0,2.0,10.0,0.29,17.5,21.2,"12:00:56",1
"19/10/22","12:20",0.0,23.0,70.1,1005.2,318.3,1.1,2.7,224.6,0.12,17.3,21.2,"12:14:08",1
"19/10/22","12:30",0.0,23.1,67.8,1005.0,320.1,1.1,2.7,335.3,0.24,16.9,21.5,"12:25:20",1
"19/10/22","12:40",0.0,22.7,66.9,1005.5,341.9,2.6,6.3,343.6,0.18,16.3,21.5,"12:33:28",1
"19/10/22","12:50",0.0,23.9,66.2,1005.2,344.8,1.8,5.0,328.7,0.33,17.3,21.5,"12:44:32",1
"19/10/22","13:00",0.0,23.1,65.0,1005.2,305.2,1.7,4.5,352.1,0.20,16.2,21.5,"12:57:04",1
"19/10/22","13:10",0.0,24.0,64.4,1005.0,337.3,1.6,4.4,326.8,0.39,16.9,21.6,"13:04:08",1
"19/10/22","13:20",0.0,23.4,64.0,1004.8,8.3,2.1,5.4,38.4,0.24,16.2,21.7,"13:15:04",1
"19/10/22","13:30",0.2,23.3,64.9,1004.5,1.4,1.5,3.7,340.1,0.16,16.4,21.7,"13:23:44",1
"19/10/22","13:40",0.0,23.7,65.5,1004.8,353.0,2.1,4.5,352.0,0.28,16.9,22.0,"13:34:48",1
"19/10/22","13:50",0.0,23.8,66.2,1004.3,351.0,2.1,4.3,34.2,0.23,17.2,21.8,"13:42:00",1
"19/10/22","14:00",0.0,24.2,64.1,1004.5,336.0,1.5,4.0,331.6,0.36,17.0,22.0,"13:53:04",1
"19/10/22","14:10",0.0,24.0,63.2,1004.5,328.6,2.1,5.4,350.2,0.38,16.6,21.8,"14:01:44",1
"19/10/22","14:20",0.0,24.1,66.2,1004.1,327.8,2.3,4.7,326.5,0.29,17.4,22.0,"14:11:44",1
"19/10/22","14:30",0.0,23.6,65.7,1004.8,326.5,1.7,3.7,347.0,0.25,16.8,22.2,"14:25:36",1
"19/10/22","14:40",0.0,23.4,63.6,1004.8,326.3,2.6,4.2,348.6,0.24,16.1,21.9,"14:37:12",1
"19/10/22","14:50",0.0,23.0,64.3,1005.0,314.6,2.2,8.2,337.0,0.19,15.9,22.1,"14:48:40",1
"19/10/22","15:00",0.0,22.9,68.0,1004.5,299.2,1.8,3.9,347.0,0.14,16.7,21.9,"14:50:40",1
"19/10/22","15:10",0.0,22.3,69.9,1005.2,286.4,1.6,5.1,275.5,0.13,16.6,22.2,"15:07:08",1
"19/10/22","15:20",0.0,22.5,70.8,1005.5,280.0,1.5,3.1,338.9,0.16,17.0,22.2,"15:12:56",1
"19/10/22","15:30",0.0,22.8,69.0,1005.7,283.3,1.3,3.4,327.4,0.19,16.9,22.0,"15:28:56",1
"19/10/22","15:40",0.0,22.7,70.0,1005.7,286.6,1.1,2.6,332.4,0.13,17.0,21.9,"15:38:48",1
"19/10/22","15:50",0.0,22.7,69.3,1005.7,296.0,1.2,3.1,342.2,0.13,16.8,21.9,"15:48:08",1
"19/10/22","16:00",0.0,22.5,67.5,1005.7,311.4,1.6,3.4,327.5,0.08,16.2,22.0,"15:56:24",1
"19/10/22","16:10",0.0,22.2,67.5,1005.7,324.0,2.6,7.3,335.9,0.09,15.9,21.8,"16:08:40",1
"19/10/22","16:20",0.0,22.4,66.6,1005.7,324.1,2.2,4.3,325.6,0.06,15.9,21.9,"16:10:32",1
"19/10/22","16:30",0.0,22.1,67.7,1006.0,318.0,1.6,3.5,348.0,0.03,15.9,21.7,"16:21:52",1
"19/10/22","16:40",0.0,22.0,68.2,1006.4,325.6,1.8,4.4,342.0,0.04,15.9,21.9,"16:38:08",1
"19/10/22","16:50",0.0,22.2,69.4,1006.4,329.3,1.5,3.2,338.0,0.04,16.4,21.7,"16:40:16",1
"19/10/22","17:00",0.0,21.7,69.7,1006.4,331.3,2.0,5.6,336.9,0.02,16.0,21.6,"16:56:16",1
"19/10/22","17:10",0.0,21.5,70.2,1006.2,319.2,1.3,2.6,338.9,0.02,15.9,21.6,"17:07:20",1
"19/10/22","17:20",0.0,21.2,70.7,1006.4,331.8,1.8,4.0,322.5,0.00,15.7,21.5,"17:14:40",1
"19/10/22","17:30",0.0,21.0,71.3,1006.4,336.3,2.0,4.8,348.2,0.00,15.7,21.5,"17:26:40",1
"19/10/22","17:40",0.0,20.8,71.8,1006.4,318.9,1.5,3.1,341.8,0.00,15.6,21.3,"17:39:52",1
"19/10/22","17:50",0.0,20.7,72.7,1006.9,313.5,1.1,3.3,340.1,0.00,15.7,21.2,"17:41:04",1
"19/10/22","18:00",0.0,20.1,74.5,1006.7,343.0,1.2,2.4,341.2,0.00,15.5,21.2,"17:52:40",1
"19/10/22","18:10",0.0,19.6,76.7,1006.7,334.6,1.7,3.4,350.8,0.00,15.4,21.0,"18:04:32",1
"19/10/22","18:20",0.0,19.5,77.3,1006.7,287.0,1.0,2.5,334.0,0.00,15.5,21.0,"18:12:08",1
"19/10/22","18:30",0.0,19.3,77.5,1006.9,300.2,0.8,2.0,332.7,0.00,15.3,20.9,"18:26:48",1
"19/10/22","18:40",0.0,18.7,79.0,1007.4,302.7,0.5,1.0,300.7,0.00,15.0,20.8,"18:35:44",1
"19/10/22","18:50",0.0,18.2,82.0,1007.6,329.9,1.1,2.1,333.3,0.00,15.1,20.7,"18:44:16",1
"19/10/22","19:00",0.0,18.0,83.4,1007.8,324.5,1.1,1.9,310.9,0.00,15.2,20.7,"18:53:36",1
"19/10/22","19:10",0.0,17.8,84.2,1008.1,334.1,1.2,2.6,349.0,0.00,15.1,20.6,"19:05:36",1
"19/10/22","19:20",0.0,17.6,85.1,1008.1,314.1,1.1,2.1,333.5,0.00,15.1,20.5,"19:11:44",1
"19/10/22","19:30",0.0,17.3,86.1,1008.3,318.9,0.7,1.3,348.6,0.00,15.0,20.2,"19:21:52",1
"19/10/22","19:40",0.0,17.2,87.1,1008.3,325.8,0.6,1.6,348.4,0.00,15.1,20.3,"19:36:16",1
"19/10/22","19:50",0.0,16.9,87.2,1008.6,324.8,1.1,2.1,326.2,0.00,14.8,20.2,"19:45:52",1
"19/10/22","20:00",0.0,16.6,88.5,1008.8,317.8,0.7,1.4,320.5,0.00,14.7,20.1,"19:59:04",1
"19/10/22","20:10",0.0,16.4,89.2,1008.8,293.5,0.6,1.1,323.3,0.00,14.7,20.0,"20:00:32",1
"19/10/22","20:20",0.0,16.4,90.2,1009.0,316.9,1.0,2.0,324.0,0.00,14.8,19.8,"20:12:24",1
"19/10/22","20:30",0.0,16.4,90.1,1008.6,320.6,0.7,1.3,335.9,0.00,14.8,19.8,"20:20:02",1
"19/10/22","20:40",0.0,16.5,90.7,1009.0,305.2,0.7,1.6,329.2,0.00,15.0,20.1,"20:30:24",1
"19/10/22","20:50",0.0,16.6,91.1,1009.3,316.5,0.8,1.4,324.3,0.00,15.2,19.9,"20:49:52",1
"19/10/22","21:00",0.0,16.7,91.1,1009.3,317.0,0.6,1.7,328.7,0.00,15.3,19.7,"20:51:36",1
"19/10/22","21:10",0.0,16.7,91.3,1009.5,324.8,0.8,1.9,332.3,0.00,15.3,19.8,"21:08:08",1
"19/10/22","21:20",0.0,16.7,91.8,1009.5,307.0,1.0,1.6,336.4,0.00,15.4,19.9,"21:19:04",1
"19/10/22","21:30",0.0,16.7,92.1,1009.5,317.9,1.0,1.8,321.4,0.00,15.5,19.7,"21:23:36",1
"19/10/22","21:40",0.0,16.8,92.3,1009.7,309.8,0.6,1.6,321.7,0.00,15.6,19.7,"21:38:24",1
"19/10/22","21:50",0.0,17.4,92.0,1009.5,284.1,1.5,3.2,330.4,0.00,16.1,19.7,"21:46:00",1
"19/10/22","22:00",0.0,17.9,90.8,1010.0,267.7,1.1,1.8,244.2,0.00,16.4,19.7,"21:53:36",1
"19/10/22","22:10",0.0,17.8,90.3,1009.7,316.6,1.0,1.7,328.2,0.00,16.2,19.7,"22:02:00",1
"19/10/22","22:20",0.0,17.3,90.4,1009.7,326.9,1.2,2.1,339.6,0.00,15.8,19.6,"22:12:24",1
"19/10/22","22:30",0.0,17.0,91.1,1009.3,330.0,1.0,2.0,355.6,0.00,15.6,19.6,"22:24:32",1
"19/10/22","22:40",0.0,16.8,91.4,1009.5,333.7,1.2,1.8,321.9,0.00,15.4,19.8,"22:39:36",1
"19/10/22","22:50",0.0,16.4,91.4,1009.5,321.1,1.2,1.8,321.9,0.00,15.0,19.2,"22:44:16",1
"19/10/22","23:00",0.0,16.1,92.2,1009.7,314.9,0.7,1.4,347.9,0.00,14.9,19.5,"22:52:00",1
"19/10/22","23:10",0.0,15.8,91.9,1009.5,292.4,0.5,1.2,353.9,0.00,14.5,19.3,"23:05:36",1
"19/10/22","23:20",0.0,15.7,93.6,1009.3,316.0,1.2,1.7,344.0,0.00,14.7,19.4,"23:19:12",1
"19/10/22","23:30",0.0,15.7,92.9,1009.3,331.0,1.3,2.1,332.4,0.00,14.6,19.2,"23:23:04",1
"19/10/22","23:40",0.0,15.6,93.5,1009.3,332.0,1.3,2.0,324.7,0.00,14.6,19.2,"23:30:08",1
"19/10/22","23:50",0.0,15.6,94.1,1009.3,280.5,0.8,1.9,331.7,0.00,14.7,19.2,"23:49:36",1
"19/10/22","24:00",0.0,15.8,93.5,1009.3,320.4,1.1,1.9,342.0,0.00,14.8,19.2,"23:59:12",1
